This is the latest recevied weather packets stored in our database for station/object OE8NDR-11. If no packets are shown the sender has not sent any weather packets the latest 10 day(s).
| Time | Temp. | Humidity | Pressure | Rain* | Wind** | Luminosity | Snow |
|---|---|---|---|---|---|---|---|
| 1777919593 | 15.56° C | 68% | 1018 hPa | 0 mm | - | - | - |
| 1777919293 | 15.56° C | 68% | 1017.9 hPa | 0 mm | - | - | - |
| 1777918993 | 15.56° C | 68% | 1017.8 hPa | 0 mm | - | - | - |
| 1777918693 | 15.56° C | 67% | 1017.8 hPa | 0 mm | - | - | - |
| 1777918393 | 16.11° C | 66% | 1017.7 hPa | 0 mm | - | - | - |
| 1777918093 | 16.11° C | 65% | 1017.7 hPa | 0 mm | - | - | - |
| 1777917793 | 16.11° C | 65% | 1017.6 hPa | 0 mm | - | - | - |
| 1777917493 | 16.11° C | 65% | 1017.5 hPa | 0 mm | - | - | - |
| 1777917194 | 16.11° C | 64% | 1017.5 hPa | 0 mm | - | - | - |
| 1777916893 | 16.67° C | 64% | 1017.5 hPa | 0 mm | - | - | - |
| 1777916594 | 16.67° C | 64% | 1017.5 hPa | 0 mm | - | - | - |
| 1777916294 | 16.67° C | 63% | 1017.4 hPa | 0 mm | - | - | - |
| 1777915994 | 17.22° C | 62% | 1017.4 hPa | 0 mm | - | - | - |
| 1777915694 | 17.22° C | 61% | 1017.4 hPa | 0 mm | - | - | - |
| 1777915394 | 17.78° C | 59% | 1017.4 hPa | 0 mm | - | - | - |
| 1777915093 | 18.33° C | 58% | 1017.3 hPa | 0 mm | - | - | - |
| 1777914794 | 18.89° C | 55% | 1017.3 hPa | 0 mm | - | - | - |
| 1777914493 | 19.44° C | 52% | 1017.4 hPa | 0 mm | - | - | - |
| 1777914194 | 19.44° C | 48% | 1017.4 hPa | 0 mm | - | - | - |
| 1777913894 | 19.44° C | 45% | 1017.4 hPa | 0 mm | - | - | - |
| 1777913594 | 19.44° C | 43% | 1017.2 hPa | 0 mm | - | - | - |
| 1777913294 | 19.44° C | 45% | 1017.3 hPa | 0 mm | - | - | - |
| 1777912994 | 20° C | 45% | 1017.3 hPa | 0 mm | - | - | - |
| 1777912694 | 20° C | 45% | 1017.2 hPa | 0 mm | - | - | - |
| 1777912394 | 20.56° C | 44% | 1017.1 hPa | 0 mm | - | - | - |
* Rain latest hour (hover to see other rain measurements)
** Current wind speed in m/s (hover to see current wind gust speed)